User: anonymous   Login
Location: Unspecified
(0.0000°N, 0.0000°E)
Time: 15:14:02
(UTC+00:00)
Language:

OAO 1 - Orbit

View from above orbital plane
View from above orbital plane
View from above satellite
View from above satellite

Ground track
Ground track

The orbit data is extracted from the following two-line orbital elements,

1 02142U 66031A   17323.99547857 -.00000006  00000-0  44998-5 0  9991
2 02142  35.0443 150.6738 0007765 243.8445 116.1443 14.33874281701789
Epoch (UTC): 19 November 2017 23:53:29
Eccentricity: 0.0007765
inclination: 35.0443°
perigee height: 773 km
apogee height: 784 km
right ascension of ascending node: 150.6738°
argument of perigee: 243.8445°
revolutions per day: 14.33874281
mean anomaly at epoch: 116.1443°
orbit number at epoch: 70178

The dashed part of the orbit path shows where the satellite is in the earth's shadow,  

DLR